Location: Kermapucano
(48.0667°N, 3.3000°W)
Time: 20:34:56
(UTC+00:00)

SJ 16-02 - Pass Details

Date: 29 November 2020
Orbit: 606 x 616 km, 75.0° (Epoch: 27 January)

Event Time Altitude Azimuth Distance (km) Brightness Sun altitude
Exits shadow 04:46:09 45° 59° (ENE) 844 2.3 -28.3°
Drops below altitude 10° 04:49:31 10° 29° (NNE) 1,987 4.2 -27.7°
Sets 04:51:48 0° 25° (NNE) 2,898 5.1 -27.4°
